Tracking 31027 objects as of 19-Jul-2025
HD Live streaming from Space Station
objects crossing your sky now

STARLINK-1513

Track STARLINK-1513 now!
10-day predictions
STARLINK-1513 is classified as:


NORAD ID: 45786
Int'l Code: 2020-038BJ
Perigee: 553.4 km
Apogee: 555.3 km
Inclination: 53.1 °
Period: 95.6 minutes
Semi major axis: 6925 km
RCS: Unknown
Launch date: June 13, 2020
Source: United States (US)
Launch site: AIR FORCE EASTERN TEST RANGE (AFETR)
Your satellite tracking list
No more satellites can be added for tracking (max 5)
FOX-1B (RADFXSAT AO-91)
FOX-1D (AO-92)
FOX-1A (AO-85)
FUNCUBE 1 (AO-73)
SPACE STATION
Track 5 satellite(s)




NASA's NSSDC Master Catalog

Two Line Element Set (TLE):
1 45786U 20038BJ  25199.31146861 -.00000333  00000-0 -34786-5 0  9993
2 45786  53.0541 168.7825 0001405  89.4125 270.7025 15.06392611281431
Source of the keplerian elements: AFSPC